Regional Weather Roundup
Issued by NWS

Home | Current Version | Previous Version | Graphics & Text | Print | Product List | Glossary On
Versions: 1 2 3 4 5 6 7 8 9 10 11 12 13 14 15 16 17 18 19 20 21 22 23 24 25 26 27 28 29 30 31 32 33 34 35 36 37 38 39 40 41 42 43 44 45 46 47 48 49 50
000
ASUS45 KBOU 200607
RWRCO

WEATHER ROUNDUP FOR COLORADO
NATIONAL WEATHER SERVICE DENVER/BOULDER CO
1200 AM MDT MON OCT 20 2014

NOTE: "FAIR" INDICATES FEW OR NO CLOUDS BELOW 12000 FEET WITH NO
SIGNIFICANT WEATHER AND/OR OBSTRUCTIONS TO VISIBILITY.

COZ001>005-013-030-031-200700-
...NORTHWEST COLORADO...

CITY           SKY/WX    TMP DP  RH WIND       PRES   REMARKS
CRAIG          CLEAR     39  31  72 E5        30.19R
HAYDEN         CLEAR     43  28  56 E7        30.19R
MEEKER         PTCLDY    42  35  76 CALM      30.20R
MOUNT WERNER   NOT AVBL
STEAMBOAT SPGS CLEAR     44  30  57 CALM      30.22R
WALDEN         CLEAR     32  27  80 SE8       30.28R WCI  25
$$

COZ006>008-011-200700-
...WEST CENTRAL VALLEYS...

CITY           SKY/WX    TMP DP  RH WIND       PRES   REMARKS
GRAND JUNCTION CLEAR     52  34  50 E7        30.10R
MONTROSE       PTCLDY    52  41  66 SE7       30.18F
EAGLE          CLOUDY    46  36  66 E5        30.24R
RIFLE          PTCLDY    45  36  70 CALM      30.16R
DELTA          MOCLDY    56  39  53 N7        30.15R
NUCLA          PTCLDY    52  37  58 E10       30.22R
$$

COZ017>023-064>068-200700-
...SOUTHWEST COLORADO...

CITY           SKY/WX    TMP DP  RH WIND       PRES   REMARKS
DURANGO        CLOUDY    45  44  97 E5        30.22S
CORTEZ         CLEAR     47  43  86 NW3       30.18R
PAGOSA SPRINGS CLOUDY    45  43  94 CALM      30.27F
TELLURIDE      MOCLDY    45  39  79 SE5       30.33F
WOLF CREEK PAS MOCLDY    32  32 100 NE9       30.47S WCI  24
$$

COZ009-010-012-014-032>034-037-058>063-200700-
...CENTRAL COLORADO...

CITY           SKY/WX    TMP DP  RH WIND       PRES   REMARKS
ASPEN          PTCLDY   N/A N/A N/A SW7       30.25F
BUENA VISTA    PTCLDY    42  36  79 W3        30.32R
COPPER MTN     PTCLDY    41  27  56 SE16      30.48S
BERTHOUD PASS  FAIR      32  28  86 SE10      30.52S WCI  24
COTTONWOOD PAS PTCLDY    46  32  57 SE6       30.40R
GUNNISON       PTCLDY    45  30  57 N6        30.32R
KREMMLING      CLEAR     36  30  80 CALM        N/A
LEADVILLE      PTCLDY    36  29  75 CALM      30.38F
MONARCH PASS   PTCLDY    34  32  93 S7        30.60R WCI  28
SALIDA         PTCLDY    48  37  64 CALM      30.37R
SUNLIGHT       PTCLDY    43  32  65 CALM      30.43R
WILKERSON PASS NOT AVBL
$$

COZ069>075-200700-
...SAN LUIS VALLEY/SANGRE DE CRISTO MOUNTAINS...

CITY           SKY/WX    TMP DP  RH WIND       PRES   REMARKS
ALAMOSA        PTCLDY    43  34  70 S5        30.27F
LA VETA PASS   PTCLDY    41  32  70 CALM      30.41R
SAGUACHE       MOCLDY    46  39  76 NW9       30.31S
$$

COZ035-036-038>040-200700-
...NORTHERN COLORADO FRONT RANGE...

CITY           SKY/WX    TMP DP  RH WIND       PRES   REMARKS
DENVER INTL AP PTCLDY    51  35  54 SW9       30.17S
DMNS CITY PARK   N/A     52  36  54 S5        30.17S
AURORA         PTCLDY    50  35  54 S7        30.19S
FRONT RANGE AP MOCLDY    50  37  62 SW7       30.18R
ERIE MUNI ARPT CLEAR     42  37  81 CALM      30.16R
BOULDER MUN AP CLEAR     52  34  50 CALM      30.16R
CENTENNIAL     PTCLDY    49  34  56 CALM      30.20R
BROOMFIELD     CLEAR     57  32  38 CALM      30.18S
FORT COLLINS   CLEAR     48  37  66 N6        30.18R
LONGMONT       CLEAR     48  36  63 CALM      30.18R
$$

COZ041-046-047-076>085-087-088-200700-
...PIKES PEAK/PALMER DIVIDE AND SOUTHERN FOOTHILLS...

CITY           SKY/WX    TMP DP  RH WIND       PRES   REMARKS
COLO. SPRINGS  PTCLDY    47  35  63 N6        30.24S
A. F. ACADEMY  CLEAR     40  33  75 N8        30.25R
ELLICOTT       NOT AVBL
FALCON         PTCLDY    43  34  69 CALM      30.27R
FORT CARSON    PTCLDY    48  34  58 NW7       30.21R
LIMON          CLEAR     40  35  83 CALM      30.19S
MONUMENT HILL  CLEAR     43  34  70 S9        30.25R
TRINIDAD       CLEAR     50  39  66 W9        30.18F
$$

COZ042>045-048>051-090-091-200700-
...NORTHEAST COLORADO...

CITY           SKY/WX    TMP DP  RH WIND       PRES   REMARKS
GREELEY ARPT   CLEAR     45  32  61 NW7       30.17R
AKRON          CLEAR     53  38  56 S8        30.15S
BURLINGTON     CLEAR     42  37  82 CALM      30.13S
WRAY           CLEAR     45  37  72 W7        30.12R
STERLING       CLEAR     43  37  81 W3        30.12R
HOLYOKE        CLEAR     43  36  75 W7        30.12R
FORT MORGAN    CLEAR     50  35  56 NE5       30.16R
$$

COZ086-089-092>099-200700-
...SOUTHEAST COLORADO...

CITY           SKY/WX    TMP DP  RH WIND       PRES   REMARKS
PUEBLO         PTCLDY    51  36  56 CALM      30.14S
LA JUNTA       PTCLDY    55  42  61 N3        30.12R
LAMAR          CLEAR     49  43  80 CALM      30.09R
SPRINGFIELD      N/A     45  41  86 NW9       30.11S
$$



USA.gov is the U.S. government's official web portal to all federal, state and local government web resources and services.